星链-4488 (STARLINK-4488 )

导读

STARLINK-4488是美国SpaceX公司星链(Starlink)卫星互联网项目中的一颗卫星,于2022年8月19日发射入轨。星链计划旨在构建全球覆盖的低轨卫星星座,为偏远地区等提供高速低延迟互联网服务。STARLINK-4488加入星座后,助力提升星链网络的覆盖容量与服务稳定性,支撑全球更多地区的高速互联需求。

Basic Information
目录编号:
53534
目录名称:
STARLINK-4488
国际标识:
2022-101H
轨道中心:
EARTH
卫星名称:
星链-4488
卫星全名:
星链-4488 (STARLINK-4488 )
卫星状态:
已陨落 最后检测时间 2025-01-13
发射日期:
2022-08-19 UTC
国别 :
美国 (US)
星等 :
--
Orbit Information
数据来源 国际轨道数据
星历时间: 2025-01-14T11:34:44+0800
轨道信息已过期519天
半长轴: 6526.078km
偏心率: 0.0012558
轨道倾角: 53.173°
近地点辐角 8.568°
升交点赤经 135.687°
平近点角 130.284°
近地点: 139.747km
远地点: 156.139km
周期: 87.446分钟
每日圈数: 16.467376
Detailed Information
固有亮度:
5
最大亮度:
2.5
卫星平台:
Starlink v1.5
覆盖范围:
全球
运营商:
太空探索技术公司
运营商所在国:
美国
制造商(研发单位):
太空探索技术公司
制造商所在国:
美国
使用方式:
暂无
Satellite Introduction
星链(Starlink)计划是由太空探索技术公司(SpaceX)提出的一个巨型低轨卫星互联网星座项目,计划在2019年至2024年间在太空搭建由约1.2万颗卫星组成的“星链”网络,其中1584颗将部署在地球上空550千米处的近地轨道,并从2020年开始工作。该卫星仍在工作。